Tracking 28790 objects as of 19-Apr-2024
HD Live streaming from Space Station
objects crossing your sky now

THOR ABLESTAR DEB

Track THOR ABLESTAR DEB now!
10-day predictions


NORAD ID: 1521
Int'l Code: 1965-065K
Perigee: 1,090.6 km
Apogee: 1,192.9 km
Inclination: 90.0 °
Period: 108.0 minutes
Semi major axis: 7512 km
RCS: 0.077 m2 (small)
Launch date: August 13, 1965
Source: United States (US)
Launch site: AIR FORCE WESTERN TEST RANGE (AFWTR)

Note: This is SATELLITE DEBRIS
Your satellite tracking list
Your tracking list is empty




NASA's NSSDC Master Catalog

Two Line Element Set (TLE):
1  1521U 65065K   24110.25898751  .00000053  00000-0  90312-4 0  9991
2  1521  89.9810 210.2227 0068071 318.4571  94.9667 13.33220883854688
Source of the keplerian elements: AFSPC